• MPC Preparation (Info)

  • MPEC 2018-T110: 2018 TZ2

    The following Minor Planet Electronic Circular may be linked-to from your own Web pages, but must not otherwise be redistributed electronically.

    A form allowing access to any MPEC is at the bottom of this page.


    Read MPEC 2018-T109 Read MPEC 2018-T111


    M.P.E.C. 2018-T110                               Issued 2018 Oct.  9, 10:29 UT
    
         The Minor Planet Electronic Circulars contain information on unusual
             minor planets and routine data on comets.  They are published
        on behalf of Division F of the International Astronomical Union by the
              Minor Planet Center, Smithsonian Astrophysical Observatory,
                              Cambridge, MA 02138, U.S.A.
    
                 Prepared using the Tamkin Foundation Computer Network
    
                                  MPC@CFA.HARVARD.EDU
                URL https://www.minorplanetcenter.net/    ISSN 1523-6714
    
                                       2018 TZ2
    
    Observations:
         K18T02Z* C2018 10 05.40952 01 32 41.43 +08 22 51.6          20.5 GVET110G96
         K18T02Z  C2018 10 05.41610 01 32 42.63 +08 23 04.9          20.4 GVET110G96
         K18T02Z  C2018 10 05.42122 01 32 43.57 +08 23 15.0          20.3 GVET110G96
         K18T02Z  C2018 10 05.42635 01 32 44.54 +08 23 24.8          20.8 GVET110G96
         K18T02Z  C2018 10 05.49136 01 32 56.84 +08 25 34.0          20.7 GVET110G96
         K18T02Z  C2018 10 05.49314 01 32 57.20 +08 25 37.6          21.2 GVET110G96
         K18T02Z  C2018 10 05.49548 01 32 57.66 +08 25 42.1          20.8 GVET110G96
         K18T02Z  C2018 10 05.49649 01 32 57.81 +08 25 44.3          20.9 GVET110G96
         K18T02Z KC2018 10 05.92835 01 34 36.75 +08 40 43.0          20.1 RoET110K88
         K18T02Z KC2018 10 05.93263 01 34 37.61 +08 40 52.5          20.6 RoET110K88
         K18T02Z KC2018 10 05.93691 01 34 38.48 +08 41 01.6          20.7 RoET110K88
         K18T02Z KC2018 10 07.93146 01 43 44.43 +10 08 38.4          19.9 RoET110K88
         K18T02Z KC2018 10 07.93475 01 43 45.44 +10 08 48.7          20.3 RoET110K88
         K18T02Z KC2018 10 07.93841 01 43 46.53 +10 09 00.6          20.1 RoET110K88
         K18T02Z KC2018 10 08.90920101 49 46.41 +11 05 55.6          19.7 RqET110K63
         K18T02Z KC2018 10 08.91148101 49 47.25 +11 06 04.1          19.7 RqET110K63
         K18T02Z KC2018 10 08.91394701 49 48.20 +11 06 14.0          19.6 RqET110K63
         K18T02Z KC2018 10 08.91662001 49 49.22 +11 06 24.5          19.8 RqET110K63
         K18T02Z KC2018 10 08.93885 01 49 57.84 +11 07 49.4                VET110204
         K18T02Z KC2018 10 08.95248 01 50 03.08 +11 08 43.2                VET110204
         K18T02Z KC2018 10 08.96611 01 50 08.30 +11 09 37.3          19.5 GVET110204
         K18T02Z KC2018 10 09.06463801 50 46.22 +11 16 09.6          19.8 GVET110L01
         K18T02Z KC2018 10 09.06807601 50 47.54 +11 16 23.3          20.0 GVET110L01
         K18T02Z KC2018 10 09.07152401 50 48.90 +11 16 36.8          19.9 GVET110L01
    
    Observer details:
    204 Schiaparelli Observatory.  Observer L. Buzzi.  0.60-m f/4.64 reflector
        + CCD, 0.84-m f/3.5 reflector + CCD.
    G96 Mt. Lemmon Survey.  Observer R. A. Kowalski.  Measurers B. M. Africano,
        E. J. Christensen, G. A. Farneth, D. C. Fuls, A. R. Gibbs, A. D. Grauer,
        H. Groeller, J. A. Johnson, R. A. Kowalski, S. M. Larson, G. J. Leonard,
        R. L. Seaman, F. C. Shelly.  1.5-m reflector + 10K CCD.
    K63 G. Pascoli Observatory, Castelvecchio Pascoli.  Observer R. Bacci.  0.41-m
        f/3.2 Newtonian reflector + CCD.
    K88 GINOP-KHK, Piszkesteto.  Observer K. Sarneczky.  1.02-m Ritchey-Chretien
        + CCD.
    L01 Visnjan Observatory, Tican.  Observer K. Korlevic.  1.0-m f/2.9 reflector
        + CCD.
    
    Orbital elements:
    2018 TZ2                                                 Earth MOID = 0.0051 AU
    Epoch 2019 Apr. 27.0 TT = JDT 2458600.5                 MPC
    M  45.76877              (2000.0)            P               Q
    n   0.30715425     Peri.   76.16625     -0.04951481     -0.99872331
    a   2.1755298      Node    16.68161     +0.90237374     -0.04902559
    e   0.6545890      Incl.    1.99667     +0.42810037     -0.01217516
    P   3.21           H   24.7           G   0.15           U   7
    Residuals in seconds of arc
    181005 G96  0.1+  0.2-    181005 K88  0.1+  0.3+    181008 K63  0.1-  0.0
    181005 G96  0.0   0.0     181005 K88  0.1-  0.4+    181008 K63  0.2-  0.1-
    181005 G96  0.0   0.0     181005 K88  0.1-  0.0     181008 204  0.3+  0.0
    181005 G96  0.3+  0.4-    181007 K88  0.1-  0.1+    181008 204  0.3+  0.1-
    181005 G96  0.1-  0.1-    181007 K88  0.1+  0.1-    181008 204  0.0   0.0
    181005 G96  0.1+  0.0     181007 K88  0.3-  0.2+    181009 L01  0.4+  0.1+
    181005 G96  0.2+  0.1-    181008 K63  0.3+  0.3+    181009 L01  0.2-  0.1+
    181005 G96  0.5-  0.1+    181008 K63  0.2-  0.2-    181009 L01  0.4-  0.2-
    
    Ephemeris:
    2018 TZ2                 a,e,i = 2.18, 0.65, 2                   q = 0.7515
    Date    TT    R. A. (2000) Decl.     Delta      r     Elong.  Phase     V
    2018 09 09    00 58 54.8 +03 28 52   0.4081  1.3786   151.0    20.7    24.5
    ...
    2018 09 24    01 11 34.0 +05 04 14   0.2335  1.2275   162.1    14.6    22.8
    ...
    2018 10 02    01 23 27.8 +06 53 55   0.1495  1.1469   166.5    11.7    21.6
    ...
    2018 10 08    01 44 05.9 +10 13 14   0.09014 1.0872   166.6    12.3    20.4
    2018 10 09    01 50 20.9 +11 12 50   0.08061 1.0774   165.8    13.2    20.2
    2018 10 10    01 58 16.4 +12 27 18   0.07123 1.0676   164.5    14.5    19.9
    ...
    2018 10 16    05 20 33.1 +32 48 30   0.02493 1.0098   120.2    58.5    18.8
    ...
    2018 10 24    11 53 07.7 +08 33 27   0.07278 0.9368    35.9   141.5    25.9
    ...
    2018 11 08    12 41 27.3 +00 27 25   0.2224  0.8219    36.2   134.6    27.2
    
    A. U. Tomatic                (C) Copyright 2018 MPC           M.P.E.C. 2018-T110
    

    Read MPEC 2018-T109 Read MPEC 2018-T111


    MPEC number:

    Enter an MPEC number in one of the following forms:

    • 1997-B01 (the full form)
    • J97B01 (the packed version of the full form)
    • B01 (the abbreviated form)